OK1JIL-13 Weather Reports


time (UTC)temp
C
wind
direction
speed
KPH
gust
KPH
rain 1hr
cm
rain 24hr
cm
rain mn
cm
humidity
%
barometer
mb
20260505035952 18 0.0 0.0 0.00 0.00 0.00 35 1011.3
20260505034951 18 0.0 0.0 0.00 0.00 0.00 36 1011.2
20260505033951 18 0.0 0.0 0.00 0.00 0.00 35 1011.3
20260505032952 18 0.0 0.0 0.00 0.00 0.00 37 1011.5
20260505031951 18 0.0 0.0 0.00 0.00 0.00 37 1011.4
20260505030952 17 0.0 0.0 0.00 0.00 0.00 39 1011.5
20260505025951 17 0.0 0.0 0.00 0.00 0.00 41 1011.6
20260505024951 17 0.0 0.0 0.00 0.00 0.00 44 1011.9
20260505023951 16 0.0 0.0 0.00 0.00 0.00 45 1012.0
20260505022951 15 0.0 0.0 0.00 0.00 0.00 50 1012.3
20260505021951 15 0.0 0.0 0.00 0.00 0.00 53 1012.4
20260505020951 15 0.0 0.0 0.00 0.00 0.00 53 1012.5
20260505015951 14 0.0 0.0 0.00 0.00 0.00 53 1012.7
20260505014952 14 0.0 0.0 0.00 0.00 0.00 56 1012.8
20260505013951 14 0.0 0.0 0.00 0.00 0.00 59 1013.6
20260505012951 15 0.0 0.0 0.00 0.00 0.00 54 1013.6
20260505011951 15 0.0 0.0 0.00 0.00 0.00 53 1013.5
20260505010951 14 0.0 0.0 0.00 0.00 0.00 59 1013.4
20260505005951 13 0.0 0.0 0.00 0.00 0.00 60 1013.6
20260505004955 15 0.0 0.0 0.00 0.00 0.00 54 1013.9
20260505003951 17 0.0 0.0 0.00 0.00 0.00 41 1013.8
20260505002951 18 0.0 0.0 0.00 0.00 0.00 40 1013.8
20260505001951 18 0.0 0.0 0.00 0.00 0.00 38 1013.7
20260505000954 18 0.0 0.0 0.00 0.00 0.00 40 1013.9
20260504235951 17 0.0 0.0 0.00 0.00 0.00 41 1013.9
20260504234950 17 0.0 0.0 0.00 0.00 0.00 41 1013.9
20260504233950 18 0.0 0.0 0.00 0.00 0.00 38 1013.9
20260504232950 18 0.0 0.0 0.00 0.00 0.00 36 1014.0
20260504231950 18 0.0 0.0 0.00 0.00 0.00 36 1013.9
20260504230950 19 0.0 0.0 0.00 0.00 0.00 34 1014.0
20260504225950 18 0.0 0.0 0.00 0.00 0.00 35 1014.1
20260504224950 18 0.0 0.0 0.00 0.00 0.00 34 1014.2
20260504223950 19 0.0 0.0 0.00 0.00 0.00 33 1014.3
20260504222950 20 0.0 0.0 0.00 0.00 0.00 30 1014.3
20260504221950 20 0.0 0.0 0.00 0.00 0.00 31 1014.4
20260504220950 20 0.0 0.0 0.00 0.00 0.00 33 1014.6
20260504215950 20 0.0 0.0 0.00 0.00 0.00 33 1014.6
20260504214950 20 0.0 0.0 0.00 0.00 0.00 34 1014.6
20260504213950 20 0.0 0.0 0.00 0.00 0.00 30 1014.7
20260504212950 20 0.0 0.0 0.00 0.00 0.00 30 1014.7
20260504211950 20 0.0 0.0 0.00 0.00 0.00 31 1014.8
20260504210950 20 0.0 0.0 0.00 0.00 0.00 32 1014.8
20260504205950 20 0.0 0.0 0.00 0.00 0.00 33 1014.8
20260504204950 20 0.0 0.0 0.00 0.00 0.00 33 1015.0
20260504203950 20 0.0 0.0 0.00 0.00 0.00 34 1014.9
20260504202950 20 0.0 0.0 0.00 0.00 0.00 37 1014.9
20260504201950 20 0.0 0.0 0.00 0.00 0.00 37 1015.0
20260504200950 20 0.0 0.0 0.00 0.00 0.00 36 1015.0
20260504195950 20 0.0 0.0 0.00 0.00 0.00 35 1015.1
20260504193950 20 0.0 0.0 0.00 0.00 0.00 36 1015.1
20260504192950 20 0.0 0.0 0.00 0.00 0.00 37 1015.1
20260504191950 20 0.0 0.0 0.00 0.00 0.00 37 1015.0
20260504190950 20 0.0 0.0 0.00 0.00 0.00 36 1015.0
20260504185950 20 0.0 0.0 0.00 0.00 0.00 36 1015.0
20260504184950 20 0.0 0.0 0.00 0.00 0.00 36 1014.9
20260504183950 20 0.0 0.0 0.00 0.00 0.00 36 1014.9
20260504182950 20 0.0 0.0 0.00 0.00 0.00 36 1014.9
20260504181950 20 0.0 0.0 0.00 0.00 0.00 38 1015.0
20260504180951 19 0.0 0.0 0.00 0.00 0.00 39 1014.9
20260504175951 19 0.0 0.0 0.00 0.00 0.00 39 1014.9
20260504174950 20 0.0 0.0 0.00 0.00 0.00 39 1014.9
20260504173950 20 0.0 0.0 0.00 0.00 0.00 39 1014.9
20260504172950 20 0.0 0.0 0.00 0.00 0.00 39 1014.9
20260504171950 20 0.0 0.0 0.00 0.00 0.00 39 1014.8
20260504170950 20 0.0 0.0 0.00 0.00 0.00 39 1014.8
20260504150950 21 0.0 0.0 0.00 0.00 0.00 33 1015.1
20260504140949 22 0.0 0.0 0.00 0.00 0.00 31 1015.3
20260504081948 18 0.0 0.0 0.00 0.00 0.00 35 1016.4
20260504080948 15 0.0 0.0 0.00 0.00 0.00 43 1016.3
20260504045948 12 0.0 0.0 0.00 0.00 0.00 42 1015.8
20260504044948 12 0.0 0.0 0.00 0.00 0.00 44 1015.9
20260504043948 12 0.0 0.0 0.00 0.00 0.00 43 1015.8
20260504042948 12 0.0 0.0 0.00 0.00 0.00 43 1015.9
20260504041948 12 0.0 0.0 0.00 0.00 0.00 43 1015.9
20260504040948 12 0.0 0.0 0.00 0.00 0.00 42 1015.9